This is the latest recevied weather packets stored in our database for station/object K8GLX. If no packets are shown the sender has not sent any weather packets the latest 10 day(s).
| Time | Temp. | Humidity | Pressure | Rain* | Wind** | Luminosity | Snow |
|---|---|---|---|---|---|---|---|
| 1777360028 | 17.22° C | 62% | 1011.2 hPa | 0.25 mm | - | 0 W/m² | - |
| 1777359860 | 17.78° C | 60% | 1011 hPa | 0.25 mm | - | 0 W/m² | - |
| 1777359428 | 17.78° C | 58% | 1010.9 hPa | 0.25 mm | - | 0 W/m² | - |
| 1777359133 | 18.33° C | 55% | 1010.9 hPa | 0 mm | - | 0 W/m² | - |
| 1777358828 | 18.89° C | 50% | 1010.8 hPa | 0 mm | - | 0 W/m² | - |
| 1777358533 | 18.89° C | 48% | 1010.7 hPa | 0 mm | - | 0 W/m² | - |
| 1777358228 | 19.44° C | 47% | 1010.5 hPa | 0 mm | - | 0 W/m² | - |
| 1777357934 | 19.44° C | 46% | 1010.6 hPa | 0 mm | - | 0 W/m² | - |
| 1777357628 | 19.44° C | 46% | 1010.7 hPa | 0 mm | - | 0 W/m² | - |
| 1777357460 | 19.44° C | 46% | 1010.7 hPa | 0 mm | - | 0 W/m² | - |
| 1777357027 | 19.44° C | 46% | 1010.6 hPa | 0 mm | - | 0 W/m² | - |
| 1777356830 | 19.44° C | 46% | 1010.5 hPa | 0 mm | - | 0 W/m² | - |
| 1777356542 | 19.44° C | 46% | 1010.6 hPa | 0 mm | - | 0 W/m² | - |
| 1777356262 | 19.44° C | 45% | 1010.8 hPa | 0 mm | - | 0 W/m² | - |
| 1777355828 | 19.44° C | 45% | 1010.4 hPa | 0 mm | - | 0 W/m² | - |
| 1777355535 | 19.44° C | 45% | 1010.2 hPa | 0 mm | - | 0 W/m² | - |
| 1777355227 | 19.44° C | 44% | 1009.5 hPa | 0 mm | - | 0 W/m² | - |
| 1777354933 | 19.44° C | 45% | 1009.3 hPa | 0 mm | - | 0 W/m² | - |
| 1777354628 | 19.44° C | 45% | 1009.3 hPa | 0 mm | - | 0 W/m² | - |
| 1777354462 | 19.44° C | 45% | 1009.2 hPa | 0 mm | - | 0 W/m² | - |
| 1777354027 | 19.44° C | 45% | 1008.8 hPa | 0 mm | - | 0 W/m² | - |
| 1777353733 | 19.44° C | 44% | 1008.5 hPa | 0 mm | - | 0 W/m² | - |
| 1777353549 | 19.44° C | 45% | 1008.6 hPa | 0 mm | - | 0 W/m² | - |
| 1777353259 | 19.44° C | 44% | 1009.3 hPa | 0 mm | - | 0 W/m² | - |
| 1777352828 | 19.44° C | 44% | 1009.3 hPa | 0 mm | - | 0 W/m² | - |
* Rain latest hour (hover to see other rain measurements)
** Current wind speed in m/s (hover to see current wind gust speed)